Time,TemperatureF,DewpointF,PressureIn,WindDirection,WindDirectionDegrees,WindSpeedMPH,WindSpeedGustMPH,Humidity,HourlyPrecipIn,Conditions,Clouds,dailyrainin,SoftwareType,DateUTC
2013-01-18 00:01:00,32.9,28.9,30.17,NW,315,2.2,4.4,85,0.02,,,0.96,WUHU216HW,2013-01-18 05:01:00,
2013-01-18 00:03:00,32.8,28.7,30.17,WSW,248,1.4,4.4,85,0.02,,,0.00,WUHU216HW,2013-01-18 05:03:00,
2013-01-18 00:08:00,32.8,28.7,30.17,West,270,0.0,3.2,85,0.03,,,0.01,WUHU216HW,2013-01-18 05:08:00,
2013-01-18 00:13:00,32.6,28.5,30.17,NW,315,0.8,2.2,85,0.03,,,0.01,WUHU216HW,2013-01-18 05:13:00,
2013-01-18 00:18:00,32.8,28.7,30.16,West,270,2.2,2.2,85,0.02,,,0.01,WUHU216HW,2013-01-18 05:18:00,
2013-01-18 00:23:00,32.8,28.7,30.17,NW,315,3.2,3.2,85,0.03,,,0.02,WUHU216HW,2013-01-18 05:23:00,
2013-01-18 00:28:00,32.8,28.7,30.16,NNW,338,2.2,5.0,85,0.03,,,0.02,WUHU216HW,2013-01-18 05:28:00,
2013-01-18 00:33:00,33.1,29.3,30.16,WNW,293,2.6,5.0,86,0.02,,,0.02,WUHU216HW,2013-01-18 05:33:00,
2013-01-18 00:38:00,32.8,28.7,30.16,NNW,338,3.2,5.0,85,0.02,,,0.02,WUHU216HW,2013-01-18 05:38:00,
2013-01-18 00:43:00,32.4,28.5,30.16,WNW,293,3.2,5.0,85,0.02,,,0.02,WUHU216HW,2013-01-18 05:43:00,
2013-01-18 00:48:00,32.4,28.5,30.17,WNW,293,5.0,5.0,85,0.02,,,0.02,WUHU216HW,2013-01-18 05:48:00,
2013-01-18 00:53:00,32.9,29.2,30.18,West,270,5.0,5.8,86,0.02,,,0.02,WUHU216HW,2013-01-18 05:53:00,
2013-01-18 00:58:00,33.3,29.5,30.18,WNW,293,4.0,5.8,86,0.03,,,0.03,WUHU216HW,2013-01-18 05:58:00,
2013-01-18 01:03:00,33.5,29.7,30.19,NW,315,3.6,6.8,86,0.03,,,0.03,WUHU216HW,2013-01-18 06:03:00,
2013-01-18 01:08:00,33.5,29.7,30.19,WNW,293,3.6,6.8,86,0.02,,,0.03,WUHU216HW,2013-01-18 06:08:00,
2013-01-18 01:13:00,33.5,29.7,30.20,NNW,338,5.8,6.8,86,0.02,,,0.03,WUHU216HW,2013-01-18 06:13:00,
2013-01-18 01:18:00,33.5,30.0,30.18,North,0,2.6,6.2,87,0.01,,,0.03,WUHU216HW,2013-01-18 06:18:00,
2013-01-18 01:23:00,33.5,30.0,30.18,NNW,338,3.6,5.4,87,0.01,,,0.03,WUHU216HW,2013-01-18 06:23:00,
2013-01-18 01:50:00,34.0,30.4,30.20,NW,315,2.6,2.6,87,0.01,,,0.03,WUHU216HW,2013-01-18 06:50:00,
2013-01-18 01:55:00,33.3,29.5,30.21,NW,315,4.0,7.2,86,0.02,,,0.04,WUHU216HW,2013-01-18 06:55:00,
2013-01-18 02:00:00,33.3,29.5,30.22,WNW,293,3.2,7.2,86,0.01,,,0.04,WUHU216HW,2013-01-18 07:00:00,
2013-01-18 02:05:00,33.3,29.5,30.23,West,270,4.0,6.2,86,0.01,,,0.04,WUHU216HW,2013-01-18 07:05:00,
2013-01-18 02:10:00,33.1,29.3,30.23,WNW,293,2.6,6.2,86,0.01,,,0.04,WUHU216HW,2013-01-18 07:10:00,
2013-01-18 02:15:00,33.3,29.5,30.23,WNW,293,5.4,6.8,86,0.01,,,0.04,WUHU216HW,2013-01-18 07:15:00,
2013-01-18 02:20:00,33.3,29.5,30.23,WNW,293,2.2,6.8,86,0.01,,,0.04,WUHU216HW,2013-01-18 07:20:00,
2013-01-18 02:25:00,33.1,29.3,30.23,NW,315,2.2,6.2,86,0.00,,,0.04,WUHU216HW,2013-01-18 07:25:00,
2013-01-18 02:30:00,32.9,29.2,30.22,NW,315,1.4,2.2,86,0.00,,,0.04,WUHU216HW,2013-01-18 07:30:00,
2013-01-18 02:35:00,32.8,29.0,30.23,West,270,2.2,3.2,86,0.00,,,0.04,WUHU216HW,2013-01-18 07:35:00,
2013-01-18 02:40:00,32.6,28.9,30.23,WNW,293,0.8,3.2,86,0.00,,,0.04,WUHU216HW,2013-01-18 07:40:00,
2013-01-18 02:45:00,32.4,28.7,30.23,West,270,1.4,1.8,86,0.00,,,0.04,WUHU216HW,2013-01-18 07:45:00,
2013-01-18 02:48:00,32.4,28.7,30.23,WNW,293,0.0,0.4,86,0.00,,,0.04,WUHU216HW,2013-01-18 07:48:00,
2013-01-18 02:50:00,32.4,28.7,30.23,WNW,293,0.0,1.8,86,0.00,,,0.04,WUHU216HW,2013-01-18 07:50:00,
2013-01-18 02:55:00,32.4,28.7,30.23,WNW,293,0.0,0.8,86,0.00,,,0.04,WUHU216HW,2013-01-18 07:55:00,
2013-01-18 03:01:00,32.0,28.4,30.23,WNW,293,0.0,0.0,86,0.00,,,0.04,WUHU216HW,2013-01-18 08:01:00,
2013-01-18 03:06:00,31.9,28.2,30.24,WSW,248,0.8,0.8,86,0.00,,,0.04,WUHU216HW,2013-01-18 08:06:00,
2013-01-18 03:11:00,31.9,28.2,30.24,WSW,248,0.4,1.8,86,0.00,,,0.04,WUHU216HW,2013-01-18 08:11:00,
2013-01-18 03:16:00,32.8,29.0,30.24,SW,225,0.8,1.8,86,0.00,,,0.04,WUHU216HW,2013-01-18 08:16:00,
2013-01-18 03:21:00,32.6,28.9,30.25,SW,225,1.4,1.4,86,0.00,,,0.04,WUHU216HW,2013-01-18 08:21:00,
2013-01-18 03:26:00,32.0,28.4,30.25,West,270,1.4,1.4,86,0.00,,,0.04,WUHU216HW,2013-01-18 08:26:00,
2013-01-18 03:32:00,31.7,28.0,30.25,WNW,293,0.8,1.4,86,0.00,,,0.04,WUHU216HW,2013-01-18 08:32:00,
2013-01-18 03:37:00,31.5,27.8,30.25,WNW,293,0.8,1.4,86,0.00,,,0.04,WUHU216HW,2013-01-18 08:37:00,
2013-01-18 03:42:00,31.5,27.8,30.25,WNW,293,0.0,1.4,86,0.00,,,0.04,WUHU216HW,2013-01-18 08:42:00,
2013-01-18 03:47:00,31.3,27.6,30.25,West,270,1.4,1.4,86,0.00,,,0.04,WUHU216HW,2013-01-18 08:47:00,
2013-01-18 03:52:00,31.1,27.5,30.25,West,270,1.8,2.2,86,0.00,,,0.04,WUHU216HW,2013-01-18 08:52:00,
2013-01-18 03:57:00,31.0,27.3,30.25,West,270,1.8,3.2,86,0.00,,,0.04,WUHU216HW,2013-01-18 08:57:00,
2013-01-18 04:02:00,30.8,27.1,30.25,WSW,248,2.2,3.2,86,0.00,,,0.04,WUHU216HW,2013-01-18 09:02:00,
2013-01-18 04:07:00,30.8,27.1,30.25,WSW,248,1.8,2.2,86,0.00,,,0.04,WUHU216HW,2013-01-18 09:07:00,
2013-01-18 04:12:00,31.0,27.3,30.26,WSW,248,0.8,1.8,86,0.00,,,0.04,WUHU216HW,2013-01-18 09:12:00,
2013-01-18 04:17:00,31.0,27.3,30.26,WSW,248,0.8,3.2,86,0.00,,,0.04,WUHU216HW,2013-01-18 09:17:00,
2013-01-18 04:22:00,31.1,27.5,30.26,WSW,248,1.4,3.2,86,0.00,,,0.04,WUHU216HW,2013-01-18 09:22:00,
2013-01-18 04:27:00,31.7,28.0,30.26,WSW,248,0.4,2.2,86,0.00,,,0.04,WUHU216HW,2013-01-18 09:27:00,
2013-01-18 04:32:00,31.3,27.6,30.27,WSW,248,0.4,2.2,86,0.00,,,0.04,WUHU216HW,2013-01-18 09:32:00,
2013-01-18 04:37:00,31.0,27.3,30.27,WSW,248,2.2,2.2,86,0.00,,,0.04,WUHU216HW,2013-01-18 09:37:00,
2013-01-18 04:42:00,31.0,27.3,30.27,WSW,248,0.8,2.2,86,0.00,,,0.04,WUHU216HW,2013-01-18 09:42:00,
2013-01-18 04:47:00,31.1,27.5,30.27,WSW,248,0.8,2.2,86,0.00,,,0.04,WUHU216HW,2013-01-18 09:47:00,
2013-01-18 04:52:00,31.3,27.6,30.28,WSW,248,5.0,5.0,86,0.00,,,0.04,WUHU216HW,2013-01-18 09:52:00,
2013-01-18 04:57:00,31.1,27.5,30.28,WSW,248,5.0,5.0,86,0.00,,,0.04,WUHU216HW,2013-01-18 09:57:00,
2013-01-18 05:02:00,31.1,27.5,30.28,WSW,248,4.4,5.0,86,0.00,,,0.04,WUHU216HW,2013-01-18 10:02:00,
2013-01-18 05:07:00,31.3,27.6,30.28,WSW,248,2.2,5.0,86,0.00,,,0.04,WUHU216HW,2013-01-18 10:07:00,
2013-01-18 05:12:00,31.3,27.6,30.29,WSW,248,0.8,4.0,86,0.00,,,0.04,WUHU216HW,2013-01-18 10:12:00,
2013-01-18 05:17:00,31.1,27.5,30.29,WSW,248,1.8,2.6,86,0.00,,,0.04,WUHU216HW,2013-01-18 10:17:00,
2013-01-18 05:22:00,31.0,27.3,30.29,WSW,248,1.8,2.2,86,0.00,,,0.04,WUHU216HW,2013-01-18 10:22:00,
2013-01-18 05:27:00,30.8,27.1,30.29,WSW,248,1.4,2.2,86,0.00,,,0.04,WUHU216HW,2013-01-18 10:27:00,
2013-01-18 05:32:00,30.6,26.9,30.29,WSW,248,0.8,2.2,86,0.00,,,0.04,WUHU216HW,2013-01-18 10:32:00,
2013-01-18 05:37:00,30.6,26.9,30.29,WSW,248,0.8,2.2,86,0.00,,,0.04,WUHU216HW,2013-01-18 10:37:00,
2013-01-18 05:42:00,31.3,27.6,30.30,WSW,248,0.8,2.2,86,0.00,,,0.04,WUHU216HW,2013-01-18 10:42:00,
2013-01-18 05:47:00,31.3,27.6,30.30,WSW,248,1.4,2.2,86,0.00,,,0.04,WUHU216HW,2013-01-18 10:47:00,
2013-01-18 05:52:00,31.0,27.3,30.30,WSW,248,0.8,2.2,86,0.00,,,0.04,WUHU216HW,2013-01-18 10:52:00,
2013-01-18 05:57:00,31.0,27.3,30.30,WSW,248,0.8,2.2,86,0.00,,,0.04,WUHU216HW,2013-01-18 10:57:00,
2013-01-18 06:02:00,31.3,27.6,30.30,WSW,248,0.0,1.4,86,0.00,,,0.04,WUHU216HW,2013-01-18 11:02:00,
2013-01-18 06:07:00,32.0,28.4,30.30,WSW,248,0.0,0.8,86,0.00,,,0.04,WUHU216HW,2013-01-18 11:07:00,
2013-01-18 06:12:00,31.5,27.8,30.31,WSW,248,0.0,0.4,86,0.00,,,0.04,WUHU216HW,2013-01-18 11:12:00,
2013-01-18 06:17:00,31.3,27.6,30.31,WSW,248,0.0,0.4,86,0.00,,,0.04,WUHU216HW,2013-01-18 11:17:00,
2013-01-18 06:22:00,31.1,27.5,30.31,WSW,248,0.0,0.4,86,0.00,,,0.04,WUHU216HW,2013-01-18 11:22:00,
2013-01-18 06:27:00,31.0,27.3,30.31,WSW,248,0.0,0.4,86,0.00,,,0.04,WUHU216HW,2013-01-18 11:27:00,
2013-01-18 06:32:00,30.8,27.1,30.32,WSW,248,0.4,0.4,86,0.00,,,0.04,WUHU216HW,2013-01-18 11:32:00,
2013-01-18 06:37:00,30.6,26.9,30.32,WSW,248,0.8,1.4,86,0.00,,,0.04,WUHU216HW,2013-01-18 11:37:00,
2013-01-18 06:42:00,30.4,26.7,30.32,WSW,248,2.2,2.2,86,0.00,,,0.04,WUHU216HW,2013-01-18 11:42:00,
2013-01-18 06:47:00,30.6,26.9,30.33,WSW,248,2.2,3.6,86,0.00,,,0.04,WUHU216HW,2013-01-18 11:47:00,
2013-01-18 06:52:00,30.6,26.9,30.33,WSW,248,5.0,5.0,86,0.00,,,0.04,WUHU216HW,2013-01-18 11:52:00,
2013-01-18 06:57:00,30.6,26.6,30.34,WSW,248,3.6,5.0,85,0.00,,,0.04,WUHU216HW,2013-01-18 11:57:00,
2013-01-18 07:03:00,30.8,26.3,30.34,WSW,248,5.8,6.8,83,0.00,,,0.04,WUHU216HW,2013-01-18 12:03:00,
2013-01-18 07:08:00,31.1,26.3,30.34,WSW,248,3.6,9.4,82,0.00,,,0.04,WUHU216HW,2013-01-18 12:08:00,
2013-01-18 07:13:00,31.3,26.2,30.35,WSW,248,5.4,9.4,81,0.00,,,0.04,WUHU216HW,2013-01-18 12:13:00,
2013-01-18 07:18:00,31.5,26.4,30.35,WSW,248,10.8,10.8,81,0.00,,,0.04,WUHU216HW,2013-01-18 12:18:00,
2013-01-18 07:23:00,31.7,25.9,30.36,WSW,248,6.8,10.8,79,0.00,,,0.04,WUHU216HW,2013-01-18 12:23:00,
2013-01-18 07:28:00,31.5,25.7,30.36,WSW,248,10.8,10.8,79,0.00,,,0.04,WUHU216HW,2013-01-18 12:28:00,
2013-01-18 07:33:00,31.9,25.8,30.36,WSW,248,9.4,10.8,78,0.00,,,0.04,WUHU216HW,2013-01-18 12:33:00,
2013-01-18 07:38:00,32.0,26.0,30.36,WSW,248,6.8,11.2,78,0.00,,,0.04,WUHU216HW,2013-01-18 12:38:00,
2013-01-18 07:43:00,32.2,25.8,30.36,WSW,248,9.8,15.2,77,0.00,,,0.04,WUHU216HW,2013-01-18 12:43:00,
2013-01-18 07:48:00,32.6,25.8,30.36,WSW,248,8.6,15.2,76,0.00,,,0.04,WUHU216HW,2013-01-18 12:48:00,
2013-01-18 07:53:00,32.2,25.5,30.37,WSW,248,9.8,13.4,76,0.00,,,0.04,WUHU216HW,2013-01-18 12:53:00,
2013-01-18 07:58:00,32.2,25.5,30.38,WSW,248,5.4,9.8,76,0.00,,,0.04,WUHU216HW,2013-01-18 12:58:00,
2013-01-18 08:03:00,32.2,25.5,30.38,WSW,248,6.2,9.4,76,0.00,,,0.04,WUHU216HW,2013-01-18 13:03:00,
2013-01-18 08:08:00,32.0,25.4,30.39,WSW,248,2.2,9.4,76,0.00,,,0.04,WUHU216HW,2013-01-18 13:08:00,
2013-01-18 08:13:00,32.0,25.4,30.39,WSW,248,6.8,6.8,76,0.00,,,0.04,WUHU216HW,2013-01-18 13:13:00,
2013-01-18 08:18:00,32.0,25.4,30.39,WSW,248,5.0,6.8,76,0.00,,,0.04,WUHU216HW,2013-01-18 13:18:00,
2013-01-18 08:23:00,32.0,25.4,30.39,WSW,248,5.0,5.0,76,0.00,,,0.04,WUHU216HW,2013-01-18 13:23:00,
2013-01-18 08:28:00,32.2,25.5,30.40,WSW,248,3.6,6.8,76,0.00,,,0.04,WUHU216HW,2013-01-18 13:28:00,
2013-01-18 08:33:00,32.6,25.5,30.41,WSW,248,5.0,6.8,75,0.00,,,0.04,WUHU216HW,2013-01-18 13:33:00,
2013-01-18 08:38:00,32.8,25.4,30.41,West,270,4.4,9.4,74,0.00,,,0.04,WUHU216HW,2013-01-18 13:38:00,
2013-01-18 08:43:00,33.3,25.5,30.41,West,270,3.2,9.4,73,0.00,,,0.04,WUHU216HW,2013-01-18 13:43:00,
2013-01-18 08:48:00,33.3,25.5,30.41,NW,315,7.2,7.2,73,0.00,,,0.04,WUHU216HW,2013-01-18 13:48:00,
2013-01-18 08:53:00,33.8,25.7,30.42,NW,315,5.0,9.4,72,0.00,,,0.04,WUHU216HW,2013-01-18 13:53:00,
2013-01-18 08:58:00,34.0,26.5,30.42,WNW,293,7.2,9.4,74,0.00,,,0.04,WUHU216HW,2013-01-18 13:58:00,
2013-01-18 09:03:00,33.8,25.7,30.43,NNW,338,4.4,9.0,72,0.00,,,0.04,WUHU216HW,2013-01-18 14:03:00,
2013-01-18 09:08:00,33.7,25.5,30.43,WNW,293,5.4,9.0,72,0.00,,,0.04,WUHU216HW,2013-01-18 14:08:00,
2013-01-18 09:13:00,33.7,25.8,30.44,WSW,248,5.0,8.6,73,0.00,,,0.04,WUHU216HW,2013-01-18 14:13:00,
2013-01-18 09:18:00,34.4,25.9,30.44,West,270,6.8,9.4,71,0.00,,,0.04,WUHU216HW,2013-01-18 14:18:00,
2013-01-18 09:23:00,34.6,26.7,30.45,NNW,338,3.6,9.4,73,0.00,,,0.04,WUHU216HW,2013-01-18 14:23:00,
2013-01-18 09:28:00,34.2,26.0,30.45,WSW,248,4.0,8.0,72,0.00,,,0.04,WUHU216HW,2013-01-18 14:28:00,
2013-01-18 09:33:00,34.2,26.0,30.46,NNW,338,1.8,5.4,72,0.00,,,0.04,WUHU216HW,2013-01-18 14:33:00,
2013-01-18 09:38:00,34.6,26.4,30.47,NNW,338,2.2,7.6,72,0.00,,,0.04,WUHU216HW,2013-01-18 14:38:00,
2013-01-18 09:43:00,34.9,26.7,30.47,North,0,5.0,7.6,72,0.00,,,0.04,WUHU216HW,2013-01-18 14:43:00,
2013-01-18 09:48:00,35.3,26.8,30.47,NW,315,5.0,5.0,71,0.00,,,0.04,WUHU216HW,2013-01-18 14:48:00,
2013-01-18 09:53:00,35.3,26.5,30.48,North,0,4.4,8.6,70,0.00,,,0.04,WUHU216HW,2013-01-18 14:53:00,
2013-01-18 09:58:00,36.0,26.8,30.48,NNW,338,5.0,8.6,69,0.00,,,0.04,WUHU216HW,2013-01-18 14:58:00,
2013-01-18 10:03:00,36.2,27.4,30.47,West,270,3.6,7.2,70,0.00,,,0.04,WUHU216HW,2013-01-18 15:03:00,
2013-01-18 10:08:00,36.4,27.5,30.47,NNW,338,3.6,9.4,70,0.00,,,0.04,WUHU216HW,2013-01-18 15:08:00,
2013-01-18 10:13:00,37.1,26.4,30.47,NNW,338,3.6,9.4,65,0.00,,,0.04,WUHU216HW,2013-01-18 15:13:00,
2013-01-18 10:18:00,37.4,27.5,30.48,WNW,293,8.6,9.0,67,0.00,,,0.04,WUHU216HW,2013-01-18 15:18:00,
2013-01-18 10:23:00,37.6,27.6,30.48,WNW,293,4.4,9.0,67,0.00,,,0.04,WUHU216HW,2013-01-18 15:23:00,
2013-01-18 10:28:00,37.8,27.5,30.48,WSW,248,4.0,5.8,66,0.00,,,0.04,WUHU216HW,2013-01-18 15:28:00,
2013-01-18 10:33:00,37.8,27.8,30.48,NW,315,5.0,6.8,67,0.00,,,0.04,WUHU216HW,2013-01-18 15:33:00,
2013-01-18 10:38:00,38.2,27.4,30.48,North,0,4.4,6.2,65,0.00,,,0.04,WUHU216HW,2013-01-18 15:38:00,
2013-01-18 10:43:00,38.3,26.8,30.48,West,270,4.4,6.8,63,0.00,,,0.04,WUHU216HW,2013-01-18 15:43:00,
2013-01-18 10:48:00,38.5,26.9,30.48,WNW,293,5.8,9.4,63,0.00,,,0.04,WUHU216HW,2013-01-18 15:48:00,
2013-01-18 10:53:00,38.7,27.1,30.48,NW,315,6.8,9.4,63,0.00,,,0.04,WUHU216HW,2013-01-18 15:53:00,
2013-01-18 10:59:00,39.2,27.6,30.48,WNW,293,5.4,6.8,63,0.00,,,0.04,WUHU216HW,2013-01-18 15:59:00,
2013-01-18 11:04:00,39.2,26.8,30.49,NW,315,5.0,5.4,61,0.00,,,0.04,WUHU216HW,2013-01-18 16:04:00,
2013-01-18 11:09:00,39.4,26.2,30.49,North,0,4.0,5.4,59,0.01,,,0.05,WUHU216HW,2013-01-18 16:09:00,
2013-01-18 11:14:00,39.8,26.6,30.49,NNE,23,3.6,6.2,59,0.01,,,0.05,WUHU216HW,2013-01-18 16:14:00,
2013-01-18 11:19:00,40.0,27.2,30.49,West,270,4.0,6.2,60,0.01,,,0.05,WUHU216HW,2013-01-18 16:19:00,
2013-01-18 11:24:00,40.0,28.4,30.48,West,270,2.2,4.0,63,0.01,,,0.05,WUHU216HW,2013-01-18 16:24:00,
2013-01-18 11:29:00,40.3,27.1,30.48,West,270,5.8,6.2,59,0.01,,,0.05,WUHU216HW,2013-01-18 16:29:00,
2013-01-18 11:34:00,40.5,25.9,30.48,WNW,293,5.0,6.2,56,0.01,,,0.05,WUHU216HW,2013-01-18 16:34:00,
2013-01-18 11:39:00,40.7,28.3,30.48,WNW,293,3.6,9.0,61,0.01,,,0.05,WUHU216HW,2013-01-18 16:39:00,
2013-01-18 11:44:00,41.0,25.6,30.48,NNW,338,8.0,9.0,54,0.01,,,0.05,WUHU216HW,2013-01-18 16:44:00,
2013-01-18 11:49:00,41.0,26.0,30.48,WSW,248,6.2,8.0,55,0.01,,,0.05,WUHU216HW,2013-01-18 16:49:00,
2013-01-18 11:54:00,41.0,27.8,30.47,WSW,248,1.4,9.4,59,0.01,,,0.05,WUHU216HW,2013-01-18 16:54:00,
2013-01-18 11:59:00,41.4,28.2,30.47,West,270,2.2,9.4,59,0.01,,,0.05,WUHU216HW,2013-01-18 16:59:00,
2013-01-18 12:04:00,41.9,27.3,30.47,WNW,293,1.4,5.0,56,0.00,,,0.05,WUHU216HW,2013-01-18 17:04:00,
2013-01-18 12:09:00,41.9,26.9,30.47,North,0,4.4,5.0,55,0.00,,,0.05,WUHU216HW,2013-01-18 17:09:00,
2013-01-18 12:14:00,41.8,27.2,30.47,WNW,293,2.2,5.0,56,0.00,,,0.05,WUHU216HW,2013-01-18 17:14:00,
2013-01-18 12:19:00,42.1,27.9,30.47,WSW,248,7.2,7.2,57,0.01,,,0.06,WUHU216HW,2013-01-18 17:19:00,
2013-01-18 12:24:00,42.1,27.0,30.47,North,0,4.0,7.2,55,0.01,,,0.06,WUHU216HW,2013-01-18 17:24:00,
2013-01-18 12:29:00,42.7,26.6,30.47,North,0,1.8,8.0,53,0.01,,,0.06,WUHU216HW,2013-01-18 17:29:00,
2013-01-18 12:34:00,42.5,26.1,30.47,WNW,293,8.0,8.0,52,0.01,,,0.06,WUHU216HW,2013-01-18 17:34:00,
2013-01-18 12:39:00,42.3,24.5,30.47,NNW,338,6.8,9.0,49,0.01,,,0.06,WUHU216HW,2013-01-18 17:39:00,
2013-01-18 12:44:00,42.3,25.0,30.47,NNW,338,3.6,9.0,50,0.01,,,0.06,WUHU216HW,2013-01-18 17:44:00,
2013-01-18 12:49:00,42.5,25.7,30.47,WSW,248,5.0,6.8,51,0.01,,,0.06,WUHU216HW,2013-01-18 17:49:00,
2013-01-18 12:54:00,43.2,25.9,30.47,WSW,248,4.4,6.2,50,0.01,,,0.06,WUHU216HW,2013-01-18 17:54:00,
2013-01-18 12:59:00,43.4,26.0,30.46,North,0,1.8,5.8,50,0.01,,,0.06,WUHU216HW,2013-01-18 17:59:00,
2013-01-18 13:04:00,43.2,28.1,30.47,NNW,338,3.6,5.8,55,0.01,,,0.06,WUHU216HW,2013-01-18 18:04:00,
2013-01-18 13:09:00,42.8,24.5,30.47,NNW,338,4.0,8.0,48,0.01,,,0.06,WUHU216HW,2013-01-18 18:09:00,
2013-01-18 13:14:00,42.8,25.0,30.47,WSW,248,1.8,9.4,49,0.01,,,0.06,WUHU216HW,2013-01-18 18:14:00,
2013-01-18 13:19:00,43.6,24.6,30.47,NNE,23,5.8,9.4,47,0.00,,,0.06,WUHU216HW,2013-01-18 18:19:00,
2013-01-18 13:24:00,43.6,24.6,30.47,NNW,338,0.8,6.8,47,0.00,,,0.06,WUHU216HW,2013-01-18 18:24:00,
2013-01-18 13:29:00,43.2,26.3,30.47,NW,315,3.2,5.8,51,0.00,,,0.06,WUHU216HW,2013-01-18 18:29:00,
2013-01-18 13:34:00,43.2,24.3,30.47,NNW,338,6.8,6.8,47,0.00,,,0.06,WUHU216HW,2013-01-18 18:34:00,
2013-01-18 13:39:00,43.0,24.1,30.47,NW,315,7.2,10.8,47,0.00,,,0.06,WUHU216HW,2013-01-18 18:39:00,
2013-01-18 13:44:00,43.7,25.3,30.47,ENE,68,0.4,10.8,48,0.00,,,0.06,WUHU216HW,2013-01-18 18:44:00,
2013-01-18 13:49:00,43.9,24.9,30.47,North,0,3.2,8.0,47,0.00,,,0.06,WUHU216HW,2013-01-18 18:49:00,
2013-01-18 13:54:00,43.6,24.6,30.47,West,270,2.2,6.8,47,0.00,,,0.06,WUHU216HW,2013-01-18 18:54:00,
2013-01-18 13:59:00,43.4,26.0,30.47,SW,225,3.2,7.6,50,0.00,,,0.06,WUHU216HW,2013-01-18 18:59:00,
2013-01-18 14:04:00,43.6,24.6,30.47,WNW,293,3.2,7.6,47,0.00,,,0.06,WUHU216HW,2013-01-18 19:04:00,
2013-01-18 14:09:00,44.3,25.2,30.47,North,0,0.8,6.8,47,0.00,,,0.06,WUHU216HW,2013-01-18 19:09:00,
2013-01-18 14:14:00,44.1,25.1,30.47,SE,135,0.8,6.2,47,0.00,,,0.06,WUHU216HW,2013-01-18 19:14:00,
2013-01-18 14:19:00,43.7,23.7,30.47,WNW,293,0.0,2.2,45,0.00,,,0.06,WUHU216HW,2013-01-18 19:19:00,
2013-01-18 14:24:00,43.7,25.8,30.47,NNE,23,1.8,5.0,49,0.00,,,0.06,WUHU216HW,2013-01-18 19:24:00,
2013-01-18 14:29:00,43.9,25.5,30.47,North,0,2.6,5.0,48,0.00,,,0.06,WUHU216HW,2013-01-18 19:29:00,
2013-01-18 14:34:00,44.6,25.0,30.47,NNW,338,0.8,5.0,46,0.00,,,0.06,WUHU216HW,2013-01-18 19:34:00,
2013-01-18 14:39:00,44.5,24.3,30.47,NE,45,1.8,5.0,45,0.00,,,0.06,WUHU216HW,2013-01-18 19:39:00,
2013-01-18 14:44:00,44.3,24.7,30.47,NW,315,3.6,3.6,46,0.00,,,0.06,WUHU216HW,2013-01-18 19:44:00,
2013-01-18 14:49:00,44.3,26.3,30.47,NW,315,5.8,5.8,49,0.00,,,0.06,WUHU216HW,2013-01-18 19:49:00,
2013-01-18 14:55:00,44.8,25.2,30.47,North,0,2.6,5.8,46,0.00,,,0.06,WUHU216HW,2013-01-18 19:55:00,
2013-01-18 14:59:00,45.0,25.9,30.47,WSW,248,2.2,5.4,47,0.00,,,0.06,WUHU216HW,2013-01-18 19:59:00,
2013-01-18 15:05:00,44.6,25.6,30.47,SW,225,2.6,6.8,47,0.00,,,0.06,WUHU216HW,2013-01-18 20:05:00,
2013-01-18 15:10:00,44.3,23.6,30.47,WSW,248,7.2,7.2,44,0.00,,,0.06,WUHU216HW,2013-01-18 20:10:00,
2013-01-18 15:15:00,44.5,24.8,30.47,NNW,338,0.8,7.2,46,0.00,,,0.06,WUHU216HW,2013-01-18 20:15:00,
2013-01-18 15:20:00,45.0,24.9,30.47,West,270,2.2,4.0,45,0.00,,,0.06,WUHU216HW,2013-01-18 20:20:00,
2013-01-18 15:25:00,44.3,23.0,30.47,NNE,23,1.4,4.4,43,0.00,,,0.06,WUHU216HW,2013-01-18 20:25:00,
2013-01-18 15:26:00,44.1,24.0,30.47,WSW,248,1.4,1.4,45,0.00,,,0.06,WUHU216HW,2013-01-18 20:26:00,
2013-01-18 15:30:00,44.1,24.0,30.47,WSW,248,1.4,4.4,45,0.00,,,0.06,WUHU216HW,2013-01-18 20:30:00,
2013-01-18 15:35:00,44.1,24.0,30.47,WSW,248,1.4,2.6,45,0.00,,,0.06,WUHU216HW,2013-01-18 20:35:00,
2013-01-18 15:57:00,44.1,24.6,30.48,WNW,293,2.6,2.6,46,0.00,,,0.06,WUHU216HW,2013-01-18 20:57:00,
2013-01-18 16:02:00,44.5,24.8,30.48,NW,315,0.0,3.6,46,0.00,,,0.06,WUHU216HW,2013-01-18 21:02:00,
2013-01-18 16:08:00,43.9,26.0,30.48,WSW,248,5.8,5.8,49,0.00,,,0.06,WUHU216HW,2013-01-18 21:08:00,
2013-01-18 16:13:00,43.2,24.3,30.48,West,270,3.6,5.8,47,0.00,,,0.06,WUHU216HW,2013-01-18 21:13:00,
2013-01-18 16:18:00,43.0,24.7,30.48,WNW,293,0.4,5.4,48,0.00,,,0.06,WUHU216HW,2013-01-18 21:18:00,
2013-01-18 16:23:00,43.6,25.7,30.49,North,0,0.8,3.2,49,0.00,,,0.06,WUHU216HW,2013-01-18 21:23:00,
2013-01-18 16:28:00,42.8,26.8,30.48,NW,315,2.2,2.6,53,0.00,,,0.06,WUHU216HW,2013-01-18 21:28:00,
2013-01-18 16:33:00,42.3,25.9,30.49,SW,225,0.0,2.6,52,0.00,,,0.06,WUHU216HW,2013-01-18 21:33:00,
2013-01-18 16:38:00,42.3,27.2,30.49,NW,315,1.8,1.8,55,0.00,,,0.06,WUHU216HW,2013-01-18 21:38:00,
2013-01-18 16:43:00,42.5,24.7,30.49,WNW,293,1.8,4.4,49,0.00,,,0.06,WUHU216HW,2013-01-18 21:43:00,
2013-01-18 16:48:00,42.5,24.1,30.50,NW,315,3.2,4.4,48,0.00,,,0.06,WUHU216HW,2013-01-18 21:48:00,
2013-01-18 16:53:00,41.4,23.6,30.49,NW,315,3.2,3.6,49,0.00,,,0.06,WUHU216HW,2013-01-18 21:53:00,
2013-01-18 16:58:00,41.2,24.4,30.50,South,180,0.8,3.6,51,0.00,,,0.06,WUHU216HW,2013-01-18 21:58:00,
2013-01-18 17:03:00,41.4,25.0,30.50,SW,225,0.8,3.2,52,0.00,,,0.06,WUHU216HW,2013-01-18 22:03:00,
2013-01-18 17:08:00,41.0,24.7,30.50,WSW,248,0.8,2.6,52,0.00,,,0.06,WUHU216HW,2013-01-18 22:08:00,
2013-01-18 17:13:00,40.5,25.0,30.51,SSW,203,0.0,2.6,54,0.00,,,0.06,WUHU216HW,2013-01-18 22:13:00,
2013-01-18 17:18:00,40.0,24.1,30.51,NW,315,1.4,2.6,53,0.00,,,0.06,WUHU216HW,2013-01-18 22:18:00,
2013-01-18 17:23:00,39.6,24.2,30.51,South,180,1.4,2.6,54,0.00,,,0.06,WUHU216HW,2013-01-18 22:23:00,
2013-01-18 17:28:00,39.6,24.7,30.51,West,270,0.8,1.4,55,0.00,,,0.06,WUHU216HW,2013-01-18 22:28:00,
2013-01-18 17:33:00,39.1,24.6,30.51,West,270,0.0,1.4,56,0.00,,,0.06,WUHU216HW,2013-01-18 22:33:00,
2013-01-18 17:38:00,38.5,24.5,30.52,SSW,203,0.0,1.4,57,0.00,,,0.06,WUHU216HW,2013-01-18 22:38:00,
2013-01-18 17:43:00,38.0,24.0,30.52,West,270,0.4,0.8,57,0.00,,,0.06,WUHU216HW,2013-01-18 22:43:00,
2013-01-18 17:48:00,37.8,24.3,30.52,WSW,248,0.8,0.8,58,0.00,,,0.06,WUHU216HW,2013-01-18 22:48:00,
2013-01-18 17:53:00,37.8,24.8,30.52,WNW,293,1.4,2.2,59,0.00,,,0.06,WUHU216HW,2013-01-18 22:53:00,
2013-01-18 17:58:00,37.4,24.8,30.52,WNW,293,0.0,2.2,60,0.00,,,0.06,WUHU216HW,2013-01-18 22:58:00,
2013-01-18 18:03:00,37.1,24.5,30.52,WNW,293,2.2,2.2,60,0.00,,,0.06,WUHU216HW,2013-01-18 23:03:00,
2013-01-18 18:08:00,36.5,24.4,30.52,WNW,293,0.0,2.2,61,0.00,,,0.06,WUHU216HW,2013-01-18 23:08:00,
2013-01-18 18:13:00,36.4,24.2,30.52,WNW,293,2.2,2.2,61,0.00,,,0.06,WUHU216HW,2013-01-18 23:13:00,
2013-01-18 18:18:00,36.5,24.8,30.52,West,270,0.8,2.2,62,0.00,,,0.06,WUHU216HW,2013-01-18 23:18:00,
2013-01-18 18:23:00,36.0,24.3,30.52,West,270,0.8,1.4,62,0.00,,,0.06,WUHU216HW,2013-01-18 23:23:00,
2013-01-18 18:28:00,35.3,23.9,30.52,West,270,0.8,0.8,63,0.00,,,0.06,WUHU216HW,2013-01-18 23:28:00,
2013-01-18 18:33:00,34.9,23.9,30.53,West,270,1.8,1.8,64,0.00,,,0.06,WUHU216HW,2013-01-18 23:33:00,
2013-01-18 18:38:00,34.7,23.8,30.53,West,270,0.0,1.8,64,0.00,,,0.06,WUHU216HW,2013-01-18 23:38:00,
2013-01-18 18:43:00,34.9,24.7,30.53,West,270,1.4,1.4,66,0.00,,,0.06,WUHU216HW,2013-01-18 23:43:00,
2013-01-18 18:48:00,34.6,24.3,30.53,West,270,0.0,1.4,66,0.00,,,0.06,WUHU216HW,2013-01-18 23:48:00,
2013-01-18 18:53:00,34.2,24.3,30.53,West,270,1.8,1.8,67,0.00,,,0.06,WUHU216HW,2013-01-18 23:53:00,
2013-01-18 18:58:00,33.8,23.9,30.53,West,270,0.0,2.2,67,0.00,,,0.06,WUHU216HW,2013-01-18 23:58:00,
2013-01-18 19:03:00,33.7,23.8,30.53,WNW,293,1.8,2.2,67,0.00,,,0.06,WUHU216HW,2013-01-19 00:03:00,
2013-01-18 19:08:00,33.5,23.9,30.53,WNW,293,0.0,1.8,68,0.00,,,0.06,WUHU216HW,2013-01-19 00:08:00,
2013-01-18 19:13:00,33.3,23.9,30.53,West,270,0.4,0.8,68,0.00,,,0.06,WUHU216HW,2013-01-19 00:13:00,
2013-01-18 19:18:00,33.5,23.6,30.53,West,270,0.0,0.8,67,0.00,,,0.06,WUHU216HW,2013-01-19 00:18:00,
2013-01-18 19:23:00,33.5,23.9,30.53,West,270,0.0,0.4,68,0.00,,,0.06,WUHU216HW,2013-01-19 00:23:00,
2013-01-18 19:28:00,33.3,23.9,30.53,West,270,0.0,0.0,68,0.00,,,0.06,WUHU216HW,2013-01-19 00:28:00,
2013-01-18 19:33:00,33.1,24.0,30.53,West,270,0.0,0.0,69,0.00,,,0.06,WUHU216HW,2013-01-19 00:33:00,
2013-01-18 19:38:00,32.6,23.9,30.54,WSW,248,0.4,0.4,70,0.00,,,0.06,WUHU216HW,2013-01-19 00:38:00,
2013-01-18 19:43:00,32.4,23.4,30.54,West,270,0.0,0.8,69,0.00,,,0.06,WUHU216HW,2013-01-19 00:43:00,
2013-01-18 19:48:00,32.2,23.2,30.54,West,270,0.0,0.8,69,0.00,,,0.06,WUHU216HW,2013-01-19 00:48:00,
2013-01-18 19:49:00,32.4,23.4,30.54,West,270,0.0,0.8,69,0.00,,,0.06,WUHU216HW,2013-01-19 00:49:00,
2013-01-18 19:54:00,32.4,23.4,30.54,West,270,0.0,0.4,69,0.00,,,0.06,WUHU216HW,2013-01-19 00:54:00,
2013-01-18 20:01:00,32.4,23.1,30.54,West,270,0.0,0.0,68,0.00,,,0.06,WUHU216HW,2013-01-19 01:01:00,
2013-01-18 20:07:00,32.2,23.2,30.54,West,270,0.0,0.0,69,0.00,,,0.06,WUHU216HW,2013-01-19 01:07:00,
2013-01-18 20:17:00,31.9,22.9,30.54,West,270,0.0,0.0,69,0.00,,,0.06,WUHU216HW,2013-01-19 01:17:00,
2013-01-18 20:22:00,31.7,22.3,30.54,West,270,0.0,0.0,68,0.00,,,0.06,WUHU216HW,2013-01-19 01:22:00,
2013-01-18 20:27:00,31.7,22.7,30.54,West,270,0.0,0.0,69,0.00,,,0.06,WUHU216HW,2013-01-19 01:27:00,
2013-01-18 20:32:00,31.3,22.3,30.54,West,270,0.0,0.0,69,0.00,,,0.06,WUHU216HW,2013-01-19 01:32:00,
2013-01-18 20:37:00,31.3,22.3,30.54,West,270,0.0,0.0,69,0.00,,,0.06,WUHU216HW,2013-01-19 01:37:00,
2013-01-18 20:43:00,30.8,22.1,30.54,West,270,0.0,0.0,70,0.00,,,0.06,WUHU216HW,2013-01-19 01:43:00,
2013-01-18 20:48:00,30.6,22.3,30.54,West,270,0.8,0.8,71,0.00,,,0.06,WUHU216HW,2013-01-19 01:48:00,
2013-01-18 20:53:00,30.2,22.0,30.54,West,270,0.0,0.8,71,0.00,,,0.06,WUHU216HW,2013-01-19 01:53:00,
2013-01-18 20:57:00,30.2,22.9,30.54,West,270,1.4,1.4,74,0.00,,,0.06,WUHU216HW,2013-01-19 01:57:00,
2013-01-18 21:03:00,29.9,22.2,30.54,West,270,0.0,1.4,73,0.00,,,0.06,WUHU216HW,2013-01-19 02:03:00,
2013-01-18 21:08:00,29.5,22.2,30.54,West,270,0.0,0.4,74,0.00,,,0.06,WUHU216HW,2013-01-19 02:08:00,
2013-01-18 21:13:00,29.3,22.4,30.54,West,270,0.8,0.8,75,0.00,,,0.06,WUHU216HW,2013-01-19 02:13:00,
2013-01-18 21:18:00,29.2,21.9,30.54,West,270,0.0,0.8,74,0.00,,,0.06,WUHU216HW,2013-01-19 02:18:00,
2013-01-18 21:23:00,29.2,22.2,30.54,West,270,0.0,0.0,75,0.00,,,0.06,WUHU216HW,2013-01-19 02:23:00,
2013-01-18 21:28:00,29.0,22.1,30.54,West,270,0.0,0.0,75,0.00,,,0.06,WUHU216HW,2013-01-19 02:28:00,
2013-01-18 21:33:00,29.0,22.1,30.54,West,270,0.0,0.0,75,0.00,,,0.06,WUHU216HW,2013-01-19 02:33:00,
2013-01-18 21:38:00,29.2,22.5,30.54,West,270,0.0,0.0,76,0.00,,,0.06,WUHU216HW,2013-01-19 02:38:00,
2013-01-18 21:43:00,29.3,23.3,30.54,West,270,0.4,0.4,78,0.00,,,0.06,WUHU216HW,2013-01-19 02:43:00,
2013-01-18 21:48:00,29.5,23.5,30.54,West,270,0.4,0.4,78,0.00,,,0.06,WUHU216HW,2013-01-19 02:48:00,
2013-01-18 21:53:00,29.7,23.7,30.54,West,270,0.0,0.8,78,0.00,,,0.06,WUHU216HW,2013-01-19 02:53:00,
2013-01-18 21:58:00,29.9,24.1,30.54,West,270,0.4,0.8,79,0.00,,,0.06,WUHU216HW,2013-01-19 02:58:00,
2013-01-18 22:03:00,30.2,24.5,30.53,West,270,0.4,0.8,79,0.00,,,0.06,WUHU216HW,2013-01-19 03:03:00,
2013-01-18 22:08:00,30.2,24.5,30.53,West,270,0.8,0.8,79,0.00,,,0.06,WUHU216HW,2013-01-19 03:08:00,
2013-01-18 22:13:00,30.2,25.1,30.53,West,270,0.0,0.8,81,0.00,,,0.06,WUHU216HW,2013-01-19 03:13:00,
2013-01-18 22:18:00,29.9,24.5,30.53,West,270,0.0,0.8,80,0.00,,,0.06,WUHU216HW,2013-01-19 03:18:00,
2013-01-18 22:23:00,30.1,24.0,30.53,West,270,0.0,0.8,78,0.00,,,0.06,WUHU216HW,2013-01-19 03:23:00,
2013-01-18 22:28:00,30.1,23.7,30.53,West,270,0.0,0.0,77,0.00,,,0.06,WUHU216HW,2013-01-19 03:28:00,
2013-01-18 22:33:00,29.9,23.2,30.53,West,270,0.0,0.0,76,0.00,,,0.06,WUHU216HW,2013-01-19 03:33:00,
2013-01-18 22:38:00,29.2,22.2,30.52,West,270,0.0,0.0,75,0.00,,,0.06,WUHU216HW,2013-01-19 03:38:00,
2013-01-18 22:43:00,28.1,21.4,30.52,West,270,0.0,0.4,76,0.00,,,0.06,WUHU216HW,2013-01-19 03:43:00,
2013-01-18 22:48:00,28.1,21.8,30.52,West,270,0.0,0.4,77,0.00,,,0.06,WUHU216HW,2013-01-19 03:48:00,
2013-01-18 22:53:00,29.0,22.7,30.52,West,270,0.0,0.0,77,0.00,,,0.06,WUHU216HW,2013-01-19 03:53:00,
2013-01-18 22:58:00,28.8,21.9,30.52,West,270,0.0,0.0,75,0.00,,,0.06,WUHU216HW,2013-01-19 03:58:00,
2013-01-18 23:03:00,27.7,20.8,30.52,West,270,0.0,0.0,75,0.00,,,0.06,WUHU216HW,2013-01-19 04:03:00,
2013-01-18 23:08:00,27.2,20.3,30.52,West,270,0.0,0.0,75,0.00,,,0.06,WUHU216HW,2013-01-19 04:08:00,
2013-01-18 23:13:00,27.2,20.9,30.52,West,270,0.0,0.0,77,0.00,,,0.06,WUHU216HW,2013-01-19 04:13:00,
2013-01-18 23:18:00,27.0,20.7,30.52,West,270,0.0,0.0,77,0.00,,,0.06,WUHU216HW,2013-01-19 04:18:00,
2013-01-18 23:23:00,26.8,20.2,30.51,West,270,0.0,0.0,76,0.00,,,0.06,WUHU216HW,2013-01-19 04:23:00,
2013-01-18 23:28:00,26.5,19.9,30.51,West,270,0.0,0.0,76,0.00,,,0.06,WUHU216HW,2013-01-19 04:28:00,
2013-01-18 23:33:00,26.1,19.5,30.51,West,270,0.0,0.0,76,0.00,,,0.06,WUHU216HW,2013-01-19 04:33:00,
2013-01-18 23:38:00,25.9,19.6,30.51,West,270,0.0,0.0,77,0.00,,,0.06,WUHU216HW,2013-01-19 04:38:00,
2013-01-18 23:43:00,25.9,20.0,30.51,West,270,0.0,0.0,78,0.00,,,0.06,WUHU216HW,2013-01-19 04:43:00,
2013-01-18 23:48:00,25.9,20.3,30.51,West,270,0.4,0.8,79,0.00,,,0.06,WUHU216HW,2013-01-19 04:48:00,
2013-01-18 23:53:00,25.9,20.3,30.51,West,270,0.0,0.8,79,0.00,,,0.06,WUHU216HW,2013-01-19 04:53:00,
2013-01-18 23:58:00,25.6,19.6,30.51,West,270,0.0,0.8,78,0.00,,,0.06,WUHU216HW,2013-01-19 04:58:00,